Showing default

IRNSS 1C, 40269

Orbit data source: Space-Track

IRNSS 1C, 40269 is a payload satellite owned by ISRO (IN) in GEO that was launched on Wed, 15 Oct 2014 UTC via a PSLV-XL launch vehicle from the Sirharikota (SRI). Payload-class satellites include a variety of spacecraft equipped with specific instruments for various scientific and technological missions. These include communications satellites like Starlink; space stations such as the ISS; scientific satellites like the Hubble; Earth observation satellites from companies like Planet Labs, Umbra, and HawkEye 360; GPS; miniature CubeSats for education and research; and military/defense satellites.

Not visible in the next 10 days
Identifier
40269, 2014-061A
Orbit
GEO
Country
Flag of ININ / IND
Related business
Manufacturer
ISRO SAC/Banga
Mission
Partially operational Civil Navigation
Bus & Motor
I1K, ISRO LAM
Mass
1,425 kg wet, 600 kg dry
Launch date (UTC)
2014-10-15 (12 years ago)
Launch vehicle
PSLV-XL
Launch site
Sirharikota (SRI)
Object type
Payload
Rocket body
Debris
Shape & HBR
Box + 2 Pan, 5.0 m
Radar Cross Section
6.961 m², Medium (>0.1 m² and < 1m²)

Expand to show TLE details & history
Last TLE update: 3 days ago

TLE from 3 days ago
0 IRNSS 1C
1 40269U 14061A   26170.79126231 -.00000168  00000-0  00000-0 0  9996
2 40269   6.5240  88.8821 0022682   2.7462 184.1889  1.00268918 42714
Epoch: 2026-06-19T18:59Z
TLE epoch observation values (Epoch: 2026-06-19T18:59:25.063Z)
Latitude
-0.80744°
Longitude
82.90463°
Altitude
35,882.799 km
Speed
3.068 km/s
True Right ascension
18h 23m 05s
True Declination
0° 48' 24"
Sunlit
Object was in daylight at epoch
Visualization orbit readout
Latitude
Unknown
Longitude
Unknown
Altitude
Unknown
Speed
Unknown
Apparent Right ascension
Unknown
Apparent Declination
Unknown
Sunlit
N/A
Visualization observer readout
Local Sidereal Time
21:40:19
Azimuth
Unknown
Elevation
Unknown
Doppler factor
Unknown
Orbital elements
Apogee altitude
35,884.091 km
Perigee altitude
35,692.807 km
Semi-major axis
42,166.586 km
Eccentricity
0.00227
Inclination
6.524°
RAAN
88.8821°
Arg. of periapsis
2.7462°
True anomaly
184.16997°
Mean anomaly
184.1889°
Eccentric anomaly
184.17943°
Mean motion
0.25066 °/min
Orbital period
1,436.19 mins
BSTAR
0
Loading maneuver chart data...
Computing Atmospheric mass density...
Loading historical data...
Loading historical data...
Loading historical data...
Loading historical data...
Loading historical data...
Loading historical data...
Loading historical data...
Other satellites on launch #61 in the year 2014 (2014-10-15 UTC)

Documentation

Showing up to 5 results
|